Showing default

NORSAT 1, 42826

Orbit data source: Space-Track

NORSAT 1, 42826 is a payload satellite owned by Statsat (NO) in SSO that was launched on Fri, 14 Jul 2017 UTC via a SOYUZ-2-1A launch vehicle from the Tyuratam Missile And Space Complex (TTMTR). Payloads include a variety of satellites, spacecraft, and rockets equipped with specific instruments for various scientific and technological missions. These include communications satellites like Starlink; space stations such as the ISS; scientific satellites like the Hubble; Earth observation satellites from companies like Planet Labs, Umbra, and HawkEye 360; GPS; miniature CubeSats for education and research; and military/defense satellites.

Loading next visibility...
NORSAT 1 details
Identifier
42826, 2017-042B
Orbit
SSO
Last TLE update9 hours ago
Origin
Flag of NOStatsat (NO / NOR)
ManufacturerUTIAS-SFL
MissionOperational Commercial Communications
Bus & MotorGNB, Unknown motor
Mass30 kg wet, 30 kg dry
Launch date (UTC)
2017-07-14 (7 years ago)
Launch vehicle
SOYUZ-2-1A
Launch site
Tyuratam Missile And Space Complex (TTMTR)
Object type
Payload
Rocket body
Debris
Shape & HBRBox + 2 Pan + 4 Ant, 0.92 m
Radar Cross Section0.202 m², Medium (>0.1 m² and < 1m²)

Expand to show TLE details & history

TLE from 9 hours ago
0 NORSAT 1
1 42826U 17042B   24361.20657789  .00012799  00000-0  92563-3 0  9992
2 42826  97.4045 174.9726 0010024 127.4079 232.8061 15.04118260406073
Epoch: 2024-12-26T04:57Z
Definitive object data (Epoch: 2024-12-26T04:57:28.329Z)
Latitude-0.00008°
Longitude5.41528°
Altitude561.489 km
Speed7.578 km/s
True Right ascension11h 39m 53s
True Declination0° 00' 00"
Sunlit
Object was in daylight at TLE epoch
Visualization TLE readout
Latitude-55.83239°
Longitude16.76454°
Altitude582.817 km
Speed7.564 km/s
Apparent Right ascension04h 44m 24s
Apparent Declination-80° 05' 44"
Sunlit
Object is in daylight
Visualization observer readout
Local Sidereal Time13:39:01
Azimuth190.38° SSW
Elevation-46.317°
Doppler factor1
Orbital elements
Apogee altitude558.147 km
Perigee altitude544.255 km
Semi-major axis6,929.338 km
Eccentricity0.0010024
Inclination97.4045°
RAAN174.9726°
Arg. of periapsis127.4079°
True anomaly232.71467°
Mean anomaly232.8061°
Eccentric anomaly232.76038°
Mean motion3.76275 °/min
BSTAR0.00092563
Orbital period95.67 mins
Loading maneuver chart data...

NORSAT 1 Visibility forecast

Observer location: undefined°, undefined

Span
Click to sort rows by Start time (UTC) header in descending order
Start Az.
Max El. time (UTC)
Max El. Az.
Max El.
End time (UTC)
End Az.
6 mins2024-12-27 00:41:12.810Z12.237° NNE2024-12-27 00:44:12.810Z181.562° SSW44.946°2024-12-27 00:47:12.810Z192.67° SSW
6 mins2024-12-27 11:26:12.810Z135.405° SSE2024-12-27 11:28:12.810Z91.76° ESE32.904°2024-12-27 11:32:12.810Z3.272° NNE
|